Temperature
10 9 8 9 9 10 10 10 10 11 11 10 10 10 11 11 11 11 11 10 10 9 9 8 8 8 7 8 8 7 8 8 8 8 7 7 7 7 7 7 7 8 8 8
9 8 9 10 10 10 10 9 9 10 10 10 9 10 10 10 10 10 10 10 9 9 8 8 7 7 7 7 7 7 7 7 7 7 7 6 6 6 7 7 7 7 7 7
9 9 9 10 9 9 9 9 9 9 9 9 9 9 10 10 10 10 10 9 9 8 8 7 7 6 6 6 6 6 6 6 6 6 6 6 6 6 6 6 6 6 7 7
8 9 9 9 8 8 8 8 8 8 7 7 8 7 9 9 9 9 9 9 8 8 7 7 6 6 6 6 6 6 6 6 6 6 6 5 5 5 5 6 6 6 6 6
8 8 8 8 8 8 7 8 7 7 6 6 7 6 8 9 8 8 8 8 8 7 7 6 6 6 5 5 5 5 5 5 5 5 5 5 5 5 5 5 5 5 5 6
7 7 7 7 7 7 7 7 7 6 6 5 7 7 7 8 8 8 7 8 7 7 6 6 5 5 5 5 5 5 5 5 5 5 5 4 4 4 5 5 5 5 5 5
7 7 7 7 6 7 6 5 5 5 5 6 8 7 7 8 8 7 7 7 6 6 5 5 5 4 4 4 4 4 4 4 4 4 4 4 4 4 4 4 4 4 5 5
6 6 6 6 6 5 6 6 5 5 6 6 7 7 7 7 7 7 7 6 6 5 5 5 4 4 4 4 4 4 4 4 4 4 4 4 4 4 4 4 4 4 4 4
5 6 6 6 6 6 6 5 6 5 4 5 6 7 7 7 6 6 6 6 5 5 4 4 3 3 3 3 3 3 3 3 3 3 3 3 3 3 3 3 4 4 4 4
5 4 5 5 5 5 5 5 4 4 4 5 7 7 6 6 6 6 5 5 5 4 4 3 3 3 2 2 3 2 3 2 3 3 3 3 3 3 3 3 3 3 3 3
5 3 4 4 4 4 4 4 4 4 5 5 5 6 7 6 5 5 4 5 4 3 3 3 2 2 2 2 2 2 2 2 2 2 2 2 2 2 2 2 2 2 3 3
4 3 3 4 3 3 4 4 4 3 4 4 4 5 6 5 5 5 4 4 3 3 2 2 2 2 1 1 1 1 1 1 1 1 2 2 2 2 2 2 2 2 2 2
3 3 3 3 3 2 2 3 2 2 3 3 4 5 5 5 4 4 4 3 3 2 2 1 1 1 1 1 1 1 1 1 1 1 1 1 1 2 2 2 2 2 2 2
3 2 2 3 3 2 2 1 1 1 1 2 3 4 4 4 3 3 3 3 2 2 1 1 1 1 0 0 0 0 0 0 0 0 1 1 1 1 1 1 1 1 1 1
2 1 2 2 3 2 2 1 1 0 1 2 3 3 4 3 2 3 3 2 2 1 1 0 0 0 -0 -0 -0 -0 -0 -0 -0 -0 0 0 0 0 1 1 1 1 1 1
1 1 1 1 2 2 1 2 1 1 1 1 2 2 3 3 3 2 2 1 1 0 0 -0 -0 -0 -0 -1 -1 -1 -1 -1 -1 -0 -0 -0 0 0 0 0 0 0 0 0
0 -0 1 2 2 2 1 1 1 1 1 1 1 2 2 2 1 1 1 1 0 -0 -1 -1 -1 -1 -1 -1 -1 -1 -1 -1 -1 -1 -1 -0 -0 -0 -0 -0 -0 -0 -0 -0
-0 -0 0 1 1 1 3 2 2 1 1 1 1 1 1 1 1 1 1 1 -0 -1 -1 -1 -1 -1 -1 -1 -1 -1 -1 -1 -1 -1 -1 -1 -1 -1 -1 -1 -1 -0 -0 -0
-0 -0 0 1 1 1 2 2 1 0 0 1 0 0 1 1 1 1 1 0 -0 -1 -1 -1 -1 -1 -1 -1 -1 -1 -1 -1 -1 -2 -1 -1 -1 -1 -1 -1 -1 -1 -1 -1
-1 -1 -1 0 1 1 3 1 2 1 0 1 1 0 0 -0 -1 -0 0 -0 -1 -1 -1 -1 -1 -1 -1 -1 -1 -1 -2 -2 -2 -2 -2 -2 -2 -2 -2 -1 -1 -1 -1 -1
-2 -2 -1 -1 -0 1 1 1 1 1 1 1 1 1 0 -1 -1 -0 -1 -1 -1 -1 -1 -1 -1 -1 -2 -2 -2 -2 -2 -2 -2 -2 -2 -2 -2 -2 -2 -2 -2 -2 -2 -1
-2 -2 -2 -1 -0 1 0 -0 -0 0 1 1 1 1 0 -0 -0 -1 -1 -1 -1 -2 -2 -2 -2 -2 -2 -2 -2 -2 -2 -3 -3 -2 -2 -3 -2 -2 -2 -2 -2 -2 -2 -2
-1 -1 -1 -0 0 1 1 1 1 1 1 1 0 0 -0 -1 -1 -1 -2 -2 -2 -2 -2 -2 -2 -2 -2 -2 -3 -3 -3 -3 -3 -3 -3 -3 -3 -3 -3 -2 -2 -2 -2 -2
-1 -1 -1 -1 -1 1 1 1 1 1 1 0 0 -0 -1 -1 -2 -2 -2 -2 -2 -2 -2 -2 -2 -2 -2 -3 -3 -3 -3 -3 -3 -3 -3 -3 -3 -3 -3 -3 -3 -3 -3 -3
-0 -2 -2 -2 -1 -0 1 1 1 0 0 -0 -0 -1 -1 -2 -2 -2 -2 -2 -3 -3 -3 -3 -3 -3 -3 -3 -3 -3 -3 -3 -3 -3 -4 -4 -3 -3 -3 -3 -3 -3 -4 -4
-1 -2 -2 -1 -0 -1 0 0 0 0 -0 -1 -1 -1 -2 -2 -2 -2 -2 -3 -3 -3 -3 -3 -3 -3 -3 -3 -3 -3 -3 -3 -4 -4 -4 -4 -4 -4 -4 -4 -4 -4 -4 -4
Wind_Speed
4 3 4 4 6 6 6 6 7 4 2 4 8 9 7 5 5 4 3 2 1 1 2 2 2 2 2 1 1 1 2 1 1 0 1 1 1 2 2 2 2 2 3 3
4 5 4 4 4 5 6 7 7 4 3 5 7 10 8 5 5 3 3 2 1 1 1 2 2 2 2 1 0 1 2 2 1 1 1 2 2 2 2 2 2 3 3 3
4 0 1 3 3 5 6 6 6 5 6 5 6 7 7 5 5 4 3 2 2 2 1 1 1 1 1 1 1 1 1 1 1 1 1 1 1 2 2 2 2 3 4 4
3 1 2 3 3 3 5 3 5 5 4 3 3 4 4 3 3 3 2 1 1 1 1 1 1 1 1 1 1 1 1 1 1 1 2 2 2 3 4 3 3 4 4 4
1 1 1 3 2 3 2 4 5 5 5 5 5 5 5 4 4 3 2 1 1 1 0 0 1 1 1 1 0 1 1 1 1 2 2 3 3 3 3 3 3 4 3 4
2 0 1 2 1 1 2 3 4 4 2 4 7 6 4 3 3 2 2 2 2 2 1 1 1 1 1 1 0 1 1 2 2 2 3 3 4 4 3 4 3 3 3 3
2 3 2 1 1 2 1 1 1 1 2 5 4 4 4 1 3 2 2 2 3 3 2 2 2 1 1 1 1 1 2 2 2 2 3 4 4 4 5 4 4 4 3 3
2 2 3 1 0 1 2 2 1 2 3 2 2 4 1 3 4 3 3 2 3 3 3 2 1 1 1 1 1 2 2 3 3 3 3 4 4 4 4 4 4 4 4 4
1 1 3 2 1 1 1 2 1 1 3 4 5 3 1 1 3 3 4 4 3 4 4 3 2 2 2 2 2 2 3 3 3 4 4 4 4 4 4 4 4 4 3 4
3 1 1 2 1 2 2 1 0 1 2 4 4 3 2 2 1 2 3 3 4 4 3 2 2 2 3 3 3 3 3 4 3 4 4 4 4 4 4 4 4 4 4 4
2 0 2 3 3 2 2 1 2 3 3 3 4 2 1 2 2 1 2 3 4 4 3 3 3 3 3 3 3 3 3 3 3 4 4 4 4 4 3 3 4 4 3 3
1 1 3 1 2 1 1 2 2 2 4 3 3 4 1 4 3 2 3 4 4 4 4 3 3 3 3 3 3 3 4 4 4 4 4 4 4 4 3 3 3 3 3 3
1 1 1 1 0 0 1 2 2 1 2 4 4 4 0 3 3 4 3 4 5 5 4 3 3 3 3 3 4 4 4 4 4 5 4 4 4 3 4 3 3 3 3 3
1 2 4 4 2 1 3 4 3 3 3 5 6 7 6 4 5 5 5 4 5 4 4 4 4 4 4 4 4 4 5 5 5 5 4 4 4 3 3 3 3 3 3 3
1 3 4 6 5 4 6 7 7 8 8 7 7 8 9 6 6 5 4 4 5 5 5 5 4 4 4 4 5 5 5 5 5 5 4 3 3 3 3 3 3 3 3 3
1 2 2 4 6 6 7 9 9 10 8 9 11 12 7 6 4 4 4 5 5 5 6 6 6 5 4 4 5 5 5 5 4 4 3 3 3 3 3 3 3 2 2 2
3 2 2 3 1 3 7 8 9 6 6 7 9 8 4 5 5 5 5 4 4 5 6 6 6 5 4 4 4 5 5 5 4 3 3 3 2 3 3 3 3 2 2 2
4 2 2 2 2 5 5 1 4 6 6 7 6 5 5 5 6 5 3 2 4 5 6 6 6 6 5 5 4 5 4 4 4 4 4 3 2 3 3 3 3 3 2 2
2 3 2 2 4 6 3 1 2 3 6 4 5 6 5 4 4 3 1 2 4 5 4 4 5 5 5 5 4 4 4 4 4 4 4 3 2 3 3 3 3 3 2 2
1 1 2 3 3 5 3 0 1 2 4 2 2 3 2 2 3 3 3 5 5 5 4 4 5 5 5 5 4 3 4 4 4 5 4 3 2 2 2 3 3 2 2 2
3 3 4 5 5 6 2 1 2 2 5 2 1 2 2 2 4 4 4 5 4 4 5 5 5 4 4 4 4 3 3 4 5 5 4 4 3 2 2 2 2 2 2 1
6 5 5 4 5 7 2 3 3 4 2 2 2 2 2 3 4 4 4 5 5 5 5 5 4 4 4 4 3 4 4 5 5 4 4 4 3 3 3 2 2 2 1 1
6 6 4 6 7 2 4 4 3 2 3 3 2 2 2 3 4 4 4 4 4 4 4 4 4 4 4 4 3 4 4 5 4 4 4 3 3 3 3 2 2 2 2 1
3 2 3 5 6 4 4 4 3 3 3 3 2 2 2 3 4 5 4 4 4 5 4 4 4 4 4 4 4 4 4 4 4 4 4 3 3 3 3 2 2 2 2 2
3 4 3 6 6 6 5 4 4 4 3 3 3 3 3 3 4 4 4 4 4 4 4 3 3 4 4 5 4 4 4 4 4 4 3 3 3 3 3 3 2 2 2 1
4 5 5 6 4 3 4 2 2 2 3 3 3 3 3 3 4 4 4 4 4 3 3 3 3 3 4 4 4 4 4 3 3 3 3 3 2 2 2 2 3 4 3 4
Wind_Direction
186 216 226 236 235 266 287 280 280 287 298 271 259 264 262 250 236 235 226 212 195 182 150 136 132 130 122 99 104 153 170 182 184 236 263 260 271 273 267 246 256 254 260 268
203 232 253 266 262 272 274 274 275 284 267 278 272 268 263 241 231 229 229 220 206 223 183 146 140 138 140 150 182 189 197 200 199 216 247 243 254 260 270 265 260 259 251 252
228 259 272 265 270 271 266 266 283 293 303 264 274 269 234 204 204 211 212 199 201 204 223 171 140 126 142 182 217 253 233 217 209 214 248 273 276 273 270 271 255 254 257 252
247 295 290 270 270 274 272 313 304 299 294 270 249 281 251 190 197 182 179 174 195 210 220 220 146 146 183 218 218 247 238 229 216 209 231 241 252 255 257 261 254 251 252 247
233 106 269 257 274 287 292 326 296 278 272 284 248 248 255 198 208 200 183 146 23 16 248 212 139 127 117 78 67 254 251 271 247 238 231 244 256 262 265 266 264 264 254 244
243 116 327 308 317 284 305 306 275 244 255 262 230 218 255 209 196 139 77 50 34 22 34 47 75 83 87 84 32 297 266 271 265 251 248 245 251 257 264 267 268 268 262 250
212 181 148 316 273 204 266 351 337 253 222 242 211 213 238 118 86 95 73 40 43 33 33 30 33 33 24 18 310 302 307 282 276 264 259 253 250 248 248 257 259 265 265 263
266 212 152 142 166 230 240 233 209 253 266 296 298 232 192 94 77 65 78 69 57 32 21 24 24 5 344 323 323 317 308 298 290 273 268 263 254 247 248 254 258 257 258 259
299 279 114 103 346 318 232 230 312 278 282 272 238 206 136 112 90 70 61 49 40 26 15 15 13 354 334 321 312 308 303 299 297 289 274 269 263 253 248 255 257 257 260 265
344 293 183 136 226 291 303 310 96 212 269 275 258 226 212 174 127 71 54 36 20 13 4 9 355 342 329 317 310 305 295 291 293 299 290 283 275 265 255 257 261 260 261 263
0 269 230 185 194 197 198 216 243 257 261 264 282 268 25 112 101 93 26 10 358 344 340 340 335 331 319 312 315 309 301 300 299 294 290 286 281 272 264 259 260 263 262 260
3 273 259 215 94 7 278 238 198 218 263 243 264 263 19 84 68 43 4 354 345 341 334 337 333 329 324 324 321 318 317 312 307 300 291 283 282 282 274 268 266 267 270 265
138 178 272 261 352 319 261 248 241 249 280 247 244 253 209 67 11 0 353 342 337 337 337 343 339 333 327 324 322 321 319 317 314 310 298 289 286 282 278 272 272 271 273 273
111 222 218 233 254 216 238 236 225 204 226 253 241 263 278 302 321 329 334 328 327 331 338 339 339 336 332 328 328 327 321 318 314 305 293 286 288 285 285 282 277 275 274 278
99 245 246 267 273 255 247 235 215 217 229 241 264 275 278 297 309 310 317 327 327 331 338 336 336 332 336 335 334 329 320 317 313 306 295 288 294 300 303 296 279 274 278 283
104 267 295 269 250 248 259 247 229 230 240 250 269 277 284 306 316 322 324 322 321 330 335 337 333 326 326 327 325 324 319 316 317 317 300 297 301 303 302 299 291 278 279 281
175 191 256 261 281 310 267 233 209 211 217 216 243 258 305 315 313 310 309 311 322 327 326 328 327 322 318 317 316 313 310 315 318 314 311 315 311 298 295 295 294 279 267 269
165 178 230 275 320 255 241 177 184 213 245 231 248 274 294 295 304 301 297 316 318 316 316 321 327 331 325 317 313 307 309 319 318 313 315 323 320 313 303 293 284 278 274 270
187 178 229 251 262 270 259 232 171 204 270 224 237 273 298 328 326 302 339 338 315 314 315 319 326 323 320 316 314 322 324 325 324 319 319 319 317 309 306 288 282 280 282 285
52 148 211 237 254 255 258 146 119 128 275 257 226 262 291 350 313 287 343 344 332 331 332 333 333 329 324 322 327 332 324 330 325 322 319 317 306 294 297 295 287 292 289 286
160 187 211 230 244 262 260 157 120 181 267 299 236 245 247 252 255 282 317 324 328 329 329 332 329 329 330 333 338 331 330 330 322 320 321 322 323 321 316 310 302 296 296 301
177 184 199 199 225 254 166 135 190 240 301 292 273 257 265 280 295 311 317 318 324 327 328 330 329 330 333 339 343 337 331 325 327 326 325 328 334 332 333 339 337 326 308 300
198 199 199 204 220 245 173 203 229 269 284 284 274 283 276 283 292 304 308 311 314 318 320 323 325 328 333 338 340 327 321 325 329 327 325 332 339 337 341 351 349 350 348 323
225 202 232 261 263 270 246 239 259 272 270 285 289 292 279 276 286 297 302 308 314 316 317 322 329 330 331 337 338 321 319 330 333 328 330 336 342 344 348 349 349 352 348 344
213 175 221 254 274 293 269 253 272 284 286 292 302 291 277 273 284 287 292 298 304 307 314 323 325 322 324 330 334 335 334 341 337 330 334 341 349 348 350 351 347 340 336 342
199 190 200 236 242 233 266 287 317 295 290 288 295 303 302 282 285 291 292 294 298 302 314 322 323 322 322 328 330 334 335 342 341 334 334 336 340 341 343 346 351 359 0 4
Height
1478 1481 1481 1479 1478 1477 1476 1476 1476 1474 1474 1476 1475 1473 1471 1471 1471 1472 1473 1474 1475 1476 1477 1477 1477 1478 1478 1478 1479 1479 1479 1480 1480 1480 1480 1480 1480 1480 1481 1481 1481 1482 1482 1483
1478 1480 1478 1476 1476 1476 1477 1478 1477 1475 1474 1475 1473 1470 1468 1468 1468 1469 1470 1471 1473 1474 1475 1475 1475 1475 1475 1476 1476 1476 1476 1477 1477 1477 1477 1477 1477 1477 1478 1478 1478 1479 1479 1479
1476 1478 1476 1476 1477 1477 1477 1478 1477 1478 1476 1473 1475 1470 1465 1464 1465 1467 1468 1469 1470 1471 1472 1473 1473 1473 1473 1473 1473 1473 1473 1474 1474 1474 1474 1474 1474 1474 1474 1474 1474 1475 1475 1476
1476 1476 1477 1477 1478 1478 1480 1478 1478 1478 1482 1480 1475 1480 1465 1463 1463 1464 1466 1467 1468 1468 1469 1470 1470 1470 1470 1470 1471 1471 1470 1471 1471 1471 1471 1470 1470 1470 1470 1470 1471 1471 1471 1471
1476 1477 1478 1479 1479 1480 1480 1479 1479 1480 1482 1483 1477 1481 1469 1462 1463 1464 1464 1465 1466 1467 1467 1467 1468 1468 1468 1468 1468 1468 1468 1468 1468 1468 1467 1467 1467 1467 1467 1467 1467 1467 1467 1467
1478 1478 1479 1479 1480 1480 1481 1481 1480 1479 1483 1488 1475 1476 1468 1462 1460 1462 1463 1464 1465 1465 1465 1466 1466 1466 1466 1466 1465 1465 1465 1464 1465 1464 1464 1464 1464 1463 1463 1463 1463 1463 1463 1463
1478 1478 1479 1480 1481 1481 1482 1487 1488 1486 1487 1480 1466 1469 1465 1459 1458 1460 1462 1463 1464 1464 1464 1464 1464 1464 1463 1463 1463 1462 1462 1461 1461 1461 1461 1460 1460 1460 1459 1459 1459 1459 1459 1458
1479 1480 1480 1480 1482 1484 1483 1485 1490 1490 1481 1474 1470 1469 1463 1459 1459 1460 1461 1462 1463 1463 1464 1463 1463 1462 1462 1461 1460 1459 1459 1458 1458 1458 1457 1457 1457 1456 1455 1455 1455 1455 1455 1454
1481 1481 1480 1481 1481 1482 1482 1484 1482 1488 1487 1485 1470 1461 1461 1459 1460 1461 1461 1462 1462 1463 1463 1462 1461 1461 1460 1459 1458 1457 1456 1455 1454 1454 1454 1453 1453 1452 1452 1451 1451 1450 1450 1450
1481 1485 1481 1482 1483 1483 1483 1482 1487 1489 1488 1480 1465 1461 1464 1462 1461 1461 1462 1462 1462 1462 1461 1461 1460 1459 1458 1457 1455 1454 1453 1452 1451 1450 1450 1449 1449 1448 1448 1447 1446 1446 1446 1446
1483 1488 1485 1483 1485 1484 1485 1485 1485 1485 1483 1483 1475 1470 1459 1460 1460 1461 1462 1462 1462 1461 1460 1459 1458 1456 1455 1454 1452 1451 1450 1448 1447 1446 1445 1445 1444 1444 1443 1443 1442 1442 1442 1441
1484 1487 1487 1484 1484 1484 1484 1484 1486 1490 1486 1482 1482 1475 1460 1460 1460 1461 1461 1462 1461 1460 1459 1457 1455 1453 1452 1450 1449 1448 1446 1445 1443 1442 1441 1440 1440 1440 1439 1439 1438 1438 1438 1437
1485 1488 1489 1486 1489 1488 1487 1485 1486 1488 1487 1484 1481 1472 1460 1460 1460 1461 1461 1461 1460 1458 1456 1454 1452 1450 1448 1447 1446 1444 1443 1441 1440 1439 1437 1436 1436 1435 1435 1434 1434 1434 1434 1433
1484 1488 1489 1487 1482 1484 1487 1486 1487 1489 1490 1483 1474 1467 1461 1461 1461 1460 1460 1459 1458 1456 1454 1452 1449 1448 1446 1444 1443 1441 1439 1438 1436 1435 1433 1432 1431 1431 1430 1430 1430 1430 1430 1430
1485 1487 1484 1482 1480 1481 1481 1482 1484 1487 1483 1481 1471 1467 1461 1461 1461 1460 1459 1458 1456 1454 1452 1450 1447 1445 1443 1441 1440 1438 1436 1435 1433 1431 1429 1428 1427 1427 1427 1427 1427 1427 1427 1426
1486 1487 1485 1483 1478 1478 1479 1476 1477 1479 1478 1475 1471 1467 1460 1460 1459 1458 1457 1456 1454 1452 1450 1448 1445 1443 1441 1439 1437 1435 1433 1432 1430 1428 1426 1424 1424 1424 1423 1423 1423 1423 1423 1423
1486 1489 1487 1482 1477 1478 1477 1470 1470 1472 1469 1470 1469 1464 1460 1459 1458 1457 1455 1454 1452 1450 1448 1446 1443 1440 1438 1436 1435 1432 1431 1429 1427 1425 1423 1421 1421 1420 1420 1420 1420 1420 1420 1420
1486 1488 1487 1483 1482 1483 1467 1462 1462 1465 1464 1463 1461 1460 1458 1458 1456 1454 1453 1452 1450 1449 1446 1443 1441 1438 1436 1434 1432 1430 1428 1426 1424 1422 1420 1418 1418 1418 1418 1418 1418 1418 1418 1417
1483 1486 1486 1484 1481 1472 1463 1461 1461 1464 1463 1458 1458 1457 1456 1456 1454 1452 1451 1450 1449 1447 1444 1442 1439 1436 1434 1432 1430 1428 1426 1424 1422 1419 1417 1417 1416 1416 1415 1415 1415 1415 1415 1415
1484 1485 1488 1483 1482 1475 1462 1460 1458 1462 1462 1454 1454 1455 1455 1454 1455 1451 1449 1448 1446 1444 1442 1439 1436 1434 1432 1430 1428 1426 1424 1422 1420 1418 1417 1416 1415 1414 1413 1413 1413 1413 1413 1412
1487 1486 1487 1484 1481 1469 1460 1459 1459 1465 1460 1453 1453 1453 1453 1453 1453 1450 1448 1446 1444 1442 1439 1437 1434 1432 1430 1428 1426 1424 1423 1420 1419 1418 1416 1415 1414 1412 1412 1411 1411 1411 1411 1410
1480 1482 1482 1480 1478 1469 1459 1459 1461 1458 1453 1452 1451 1451 1451 1450 1449 1447 1445 1443 1441 1439 1437 1434 1432 1430 1428 1426 1425 1422 1421 1419 1418 1416 1415 1413 1412 1411 1410 1409 1409 1409 1408 1408
1470 1470 1468 1468 1465 1457 1455 1454 1454 1453 1452 1451 1450 1449 1449 1447 1446 1444 1442 1441 1439 1437 1434 1432 1430 1428 1427 1425 1423 1421 1419 1418 1416 1415 1413 1412 1411 1410 1409 1408 1407 1406 1406 1406
1465 1463 1464 1462 1456 1453 1452 1452 1451 1451 1450 1449 1448 1447 1446 1444 1443 1441 1440 1438 1436 1434 1432 1430 1429 1427 1425 1423 1422 1420 1418 1416 1415 1413 1412 1411 1409 1408 1407 1406 1406 1405 1404 1404
1459 1462 1462 1460 1454 1451 1448 1449 1448 1447 1447 1446 1445 1444 1443 1441 1440 1438 1436 1435 1434 1432 1430 1429 1427 1425 1423 1422 1420 1419 1417 1415 1413 1412 1410 1409 1408 1407 1406 1405 1404 1404 1404 1404
1455 1457 1458 1454 1449 1449 1447 1445 1445 1444 1444 1443 1442 1441 1440 1439 1437 1436 1434 1432 1431 1429 1428 1427 1425 1424 1422 1420 1419 1417 1416 1414 1412 1410 1409 1408 1407 1406 1405 1404 1403 1403 1403 1403